COSMOS 1560

Satellite information

Favourite Embed

Satellite Type and Status

PAYLOADIN ORBIT

Key statistics

Satellite COSMOS 1560 at a glance.

Uptime

15180

Days in orbit

Revolutions

≈ 12.5

Per day

Orbit

LEO

Low Earth Orbit

Inclination

74.0

Latest

Satellite identification and parameters

Extended collection of information and parameters for COSMOS 1560.

Object identification

Identified? True

Debris? False

Object name: COSMOS 1560

International designator: 1984-052B

Object number (NORAD): 14999

Object ID (CCSDS): 14999

Country: COMMONWEALTH OF INDEPENDENT STATES (CIS)

Current information (Y/N): Y

RCS size: MEDIUM

Orbital parameters

Period: 115.559 minutes

Inclination: 74.0132 deg

SMA: 7858.924 km

Apoapsis: 1492.285 km

Periapsis: 1469.292 km

RAAN: 340.0794 deg

Eccentricy: 0.00146284

Argument of periapsis: 287.0797 deg

Mean anomaly: 87.6675 deg

Mean motion: 12.46115068 rev/day

Mean motion (dot): -0.00000011 rev/day2

B* drag term: 0.000035361094 1/REarth

Two-line elements (TLE)

Creation date: Dec. 19, 2025, 2:08 a.m.

Reference frame: TEME

Reference center: EARTH

Epoch: Dec. 18, 2025, 10:34 p.m. UTC

TLE line 0: 0 COSMOS 1560

TLE line 1: 1 14999U 84052B 25352.94082088 -.00000011 00000-0 35361-4 0 9992

TLE line 2: 2 14999 74.0132 340.0794 0014628 287.0797 87.6675 12.46115068890380

Live tracking on map

Real-time ground track for satellite COSMOS 1560.

In-orbit conjunctions

A list of the most updated potential collisions computed for object COSMOS 1560.

Target Orbit TCA Probability of collision Miss distance Type
COSMOS 1287 LEO 2025-04-08 02:59:32 0.001246887 67.0 (m) PAYLOAD

Associated space launch

Military communications satellites

COSMOS 1560 was lifted into orbit during the mission ‘Kosmos-3M | Strela-1M 281-288’, on board a Kosmos-3M space rocket.

The launch took place on May 28, 1984, 9:52 p.m. from 132/2.

For more information about the launch, click the button.

Launch to space Kosmos-3M | Strela-1M 281-288
Kosmos-3M | Strela-1M 281-288

Agency: N/A

Status: Launch Successful

Launch date: May 28, 1984, 9:52 p.m. UTC

Rocket: Kosmos-3M

Launch pad: 132/2

Location: Plesetsk Cosmodrome, Russian Federation

...

Latest news about this satellite

There are no fresh news available about this satellite. Check back as we update our databases every day.


Newsletter sign-up

Weekly statistics, charts and insights to help you stay on top of the space industry.